Location: �quirre
(50.4736°N, 2.2351°E)
Time: 17:53:30
(UTC+00:00)

Meteor 1-21 Rocket - Pass Details

Date: 07 August 2020
Orbit: 833 x 908 km, 81.2° (Epoch: 25 September)

Event Time Altitude Azimuth Distance (km) Brightness Sun altitude
Rises 03:09:05 0° 346° (NNW) 3,418 7.8 -11.1°
Reaches altitude 10° 03:11:31 10° 346° (NNW) 2,471 7.0 -10.8°
Maximum altitude 03:17:06 83° 261° (W) 848 4.2 -10.1°
Drops below altitude 10° 03:22:37 10° 173° (S) 2,437 6.3 -9.5°
Sets 03:25:00 0° 173° (S) 3,368 7.0 -9.2°
